Weather History for KJER - July, 2013

Change the Weather History Date:

Saturday, July 13, 2013

  Actual Average Record
Temperature  
Mean Temperature 71 °F 71 °F  
Max Temperature 86 °F 87 °F 109 °F (2002)
Min Temperature 56 °F 56 °F 41 °F (1993)
Degree Days  
Heating Degree Days 0 0  
Month to date heating degree days 0 10  
Since 1 June heating degree days 78 117  
Since 1 July heating degree days 0 10  
Cooling Degree Days 6 6  
Month to date cooling degree days 158 70  
Year to date cooling degree days 303 151  
Since 1 June cooling degree days 288 138  
Growing Degree Days 20 (Base 50)    
Moisture  
Dew Point 35 °F    
Average Humidity 34    
Maximum Humidity 52    
Minimum Humidity 16    
Precipitation  
Precipitation 0.00 in 0.01 in 0.14 in (1989)
Month to date precipitation T 0.09  
Year to date precipitation 2.52 6.46  
Sea Level Pressure  
Sea Level Pressure 29.93 in    
Wind  
Wind Speed 8 mph (SW)    
Max Wind Speed 17 mph    
Max Gust Speed 22 mph    
Visibility 10 miles    
Events      
T = Trace of Precipitation, MM = Missing Value Source: NWS Daily Summary

Daily Weather History Graph

Daily Weather History Graph

Search for Another Location

Airport or City:

Trip Planner

Search our weather history database for the weather conditions in past years. The results will help you decide how hot, cold, wet, or windy it might be!

Date:

Astronomy

Jul. 13, 2013 Rise Set
Actual Time 6:11 AM MDT 9:15 PM MDT
Civil Twilight 5:37 AM MDT 9:48 PM MDT
Nautical Twilight 4:54 AM MDT 10:32 PM MDT
Astronomical Twilight 4:02 AM MDT 11:23 PM MDT
Moon 11:40 AM MDT (7/13) 11:48 PM MDT (7/13)
Length of Visible Light 16h 11m
Length of Day
15h 03m
Waxing Crescent, 26% of the Moon is Illuminated
Jul 13
Waxing Crescent
Jul 15
First Quarter
Jul 22
Full
Jul 29
Last Quarter
Aug 6
New

Hourly Weather History & Observations

Time (MDT) Temp. Dew Point Humidity Pressure Visibility Wind Dir Wind Speed Gust Speed Precip Events Conditions
12:53 AM 64.0 °F 46.0 °F 52% 29.79 in 10.0 mi ESE 9.2 mph - N/A   Clear
1:53 AM 66.9 °F 35.1 °F 31% 29.80 in 10.0 mi SSE 6.9 mph - N/A   Clear
2:53 AM 64.9 °F 30.9 °F 28% 29.83 in 10.0 mi SW 10.4 mph - N/A   Clear
3:53 AM 61.0 °F 37.0 °F 41% 29.86 in 10.0 mi SW 10.4 mph - N/A   Clear
4:53 AM 57.9 °F 37.0 °F 46% 29.88 in 10.0 mi SW 9.2 mph - N/A   Clear
5:53 AM 57.0 °F 35.1 °F 44% 29.91 in 10.0 mi SW 10.4 mph - N/A   Clear
6:53 AM 57.0 °F 35.1 °F 44% 29.93 in 10.0 mi SSW 6.9 mph - N/A   Clear
7:53 AM 59.0 °F 33.1 °F 38% 29.95 in 10.0 mi SW 5.8 mph - N/A   Clear
8:53 AM 62.1 °F 32.0 °F 32% 29.98 in 10.0 mi SW 13.8 mph - N/A   Clear
9:53 AM 66.9 °F 33.1 °F 28% 29.99 in 10.0 mi SW 15.0 mph - N/A   Clear
10:53 AM 69.1 °F 33.1 °F 26% 30.00 in 10.0 mi WSW 11.5 mph - N/A   Clear
11:53 AM 73.0 °F 35.1 °F 25% 30.01 in 10.0 mi SW 6.9 mph - N/A   Clear
12:53 PM 77.0 °F 34.0 °F 21% 30.01 in 10.0 mi SSW 9.2 mph - N/A   Clear
1:53 PM 81.0 °F 36.0 °F 20% 29.99 in 10.0 mi WSW 10.4 mph - N/A   Clear
2:53 PM 84.0 °F 35.1 °F 17% 29.97 in 10.0 mi WSW 9.2 mph - N/A   Clear
3:53 PM 84.0 °F 34.0 °F 17% 29.97 in 10.0 mi West 8.1 mph - N/A   Clear
4:53 PM 84.9 °F 33.1 °F 16% 29.95 in 10.0 mi WSW 12.7 mph 16.1 mph N/A   Clear
5:53 PM 84.9 °F 33.1 °F 16% 29.94 in 10.0 mi West 8.1 mph - N/A   Clear
6:53 PM 84.0 °F 37.0 °F 19% 29.93 in 10.0 mi WNW 3.5 mph - N/A   Clear
7:53 PM 84.0 °F 33.1 °F 16% 29.92 in 10.0 mi WSW 6.9 mph - N/A   Clear
8:53 PM 79.0 °F 37.0 °F 22% 29.94 in 10.0 mi SSW 5.8 mph - N/A   Clear
9:53 PM 73.0 °F 39.0 °F 29% 29.95 in 10.0 mi SSE 3.5 mph - N/A   Clear
10:53 PM 73.0 °F 37.0 °F 27% 29.97 in 10.0 mi SSW 8.1 mph - N/A   Clear
11:53 PM 71.1 °F 36.0 °F 28% 29.97 in 10.0 mi SW 3.5 mph - N/A   Clear